When you browse on this site, cookies collect data to enhance your experience and personalize the content and advertising you see.
Visit our Privacy Policy to learn more. By continuing to use the site, you agree to this use of cookies and data.
  • în România
  • Lista ţărilor
  • Pe 7 zile
  • Temperatura apei
  • Hartă satelitară
  • Meteo pe hartă
  • Widget-uri
  • user-avatar
    Intrare

    Meteo pe oră la Chernoreche

    Astăzi, 21 Mai, Marţi

    Timp Temperatura Precipitaţii Vânt Presiune Umiditate
    00:00 +6°C° 0 mm 2 m/s 761 mmHg 72%
    01:00 +5°C° 0 mm 2 m/s 761 mmHg 73%
    02:00 +4°C° 0 mm 3 m/s 761 mmHg 75%
    03:00 +5°C° 0 mm 2 m/s 761 mmHg 81%
    04:00 +5°C° 0 mm 3 m/s 761 mmHg 78%
    05:00 +7°C° 0 mm 3 m/s 761 mmHg 76%
    06:00 +7°C° 0 mm 4 m/s 762 mmHg 73%
    07:00 +10°C° 0.1 mm 4 m/s 762 mmHg 65%
    08:00 +11°C° 0.1 mm 4 m/s 762 mmHg 57%
    09:00 +13°C° 0 mm 5 m/s 761 mmHg 49%
    10:00 +13°C° 0 mm 5 m/s 761 mmHg 47%
    11:00 +14°C° 0 mm 5 m/s 761 mmHg 45%
    12:00 +14°C° 0 mm 5 m/s 762 mmHg 43%
    13:00 +14°C° 0 mm 5 m/s 762 mmHg 43%
    14:00 +15°C° 0 mm 5 m/s 761 mmHg 42%
    15:00 +15°C° 0 mm 5 m/s 761 mmHg 42%
    16:00 +15°C° 0 mm 4 m/s 761 mmHg 46%
    17:00 +14°C° 0 mm 3 m/s 761 mmHg 49%
    18:00 +14°C° 0 mm 3 m/s 761 mmHg 53%
    19:00 +13°C° 0 mm 3 m/s 761 mmHg 56%
    20:00 +12°C° 0 mm 2 m/s 761 mmHg 58%
    21:00 +10°C° 0 mm 2 m/s 761 mmHg 61%
    22:00 +10°C° 0 mm 2 m/s 761 mmHg 62%
    23:00 +9°C° 0 mm 2 m/s 761 mmHg 63%

    Mâine, 22 Mai, Miercuri

    Timp Temperatura Precipitaţii Vânt Presiune Umiditate
    00:00 +9°C° 0 mm 3 m/s 762 mmHg 64%
    01:00 +8°C° 0 mm 3 m/s 762 mmHg 65%
    02:00 +8°C° 0 mm 2 m/s 761 mmHg 66%
    03:00 +8°C° 0 mm 2 m/s 761 mmHg 67%
    04:00 +9°C° 0 mm 2 m/s 761 mmHg 67%
    05:00 +10°C° 0 mm 2 m/s 761 mmHg 66%
    06:00 +12°C° 0 mm 2 m/s 760 mmHg 66%
    07:00 +12°C° 0.4 mm 2 m/s 760 mmHg 68%
    08:00 +12°C° 0.4 mm 1 m/s 760 mmHg 70%
    09:00 +13°C° 0.4 mm 1 m/s 760 mmHg 73%
    10:00 +12°C° 1.9 mm 1 m/s 760 mmHg 78%
    11:00 +12°C° 1.9 mm 2 m/s 759 mmHg 84%
    12:00 +10°C° 1.9 mm 3 m/s 759 mmHg 90%
    13:00 +12°C° 0.4 mm 3 m/s 759 mmHg 86%
    14:00 +13°C° 0.4 mm 3 m/s 758 mmHg 82%
    15:00 +14°C° 0.4 mm 3 m/s 758 mmHg 79%
    16:00 +15°C° 0.6 mm 2 m/s 757 mmHg 82%
    17:00 +15°C° 0.6 mm 2 m/s 757 mmHg 86%
    18:00 +15°C° 0.6 mm 1 m/s 757 mmHg 89%
    19:00 +15°C° 0.4 mm 1 m/s 757 mmHg 90%
    20:00 +14°C° 0.4 mm 2 m/s 757 mmHg 92%
    21:00 +14°C° 0.4 mm 2 m/s 757 mmHg 93%
    22:00 +14°C° 0 mm 2 m/s 756 mmHg 91%
    23:00 +12°C° 0 mm 3 m/s 756 mmHg 89%

    Poimâine, 23 Mai, Joi

    Timp Temperatura Precipitaţii Vânt Presiune Umiditate
    00:00 +12°C° 0 mm 3 m/s 756 mmHg 87%
    01:00 +12°C° 0 mm 4 m/s 756 mmHg 87%
    02:00 +12°C° 0 mm 4 m/s 755 mmHg 87%
    03:00 +12°C° 0 mm 4 m/s 755 mmHg 87%
    04:00 +13°C° 0 mm 4 m/s 755 mmHg 83%
    05:00 +13°C° 0 mm 4 m/s 755 mmHg 80%
    06:00 +14°C° 0 mm 4 m/s 755 mmHg 76%
    07:00 +15°C° 0 mm 5 m/s 754 mmHg 70%
    08:00 +17°C° 0 mm 6 m/s 754 mmHg 63%
    09:00 +19°C° 0 mm 6 m/s 754 mmHg 57%
    10:00 +20°C° 0 mm 7 m/s 754 mmHg 52%
    11:00 +21°C° 0 mm 7 m/s 753 mmHg 47%
    12:00 +22°C° 0 mm 7 m/s 753 mmHg 43%
    13:00 +22°C° 0 mm 7 m/s 752 mmHg 43%
    14:00 +22°C° 0 mm 7 m/s 752 mmHg 43%
    15:00 +23°C° 0 mm 7 m/s 752 mmHg 43%
    16:00 +22°C° 0 mm 6 m/s 751 mmHg 47%
    17:00 +21°C° 0 mm 5 m/s 751 mmHg 51%
    18:00 +20°C° 0 mm 5 m/s 750 mmHg 55%
    19:00 +19°C° 0 mm 5 m/s 750 mmHg 59%
    20:00 +17°C° 0 mm 4 m/s 750 mmHg 64%
    21:00 +15°C° 0 mm 4 m/s 750 mmHg 68%
    22:00 +15°C° 0 mm 5 m/s 750 mmHg 73%
    23:00 +15°C° 0 mm 5 m/s 749 mmHg 78%

    24 Mai, Vineri

    Timp Temperatura Precipitaţii Vânt Presiune Umiditate
    00:00 +14°C° 0 mm 5 m/s 749 mmHg 83%
    01:00 +14°C° 0.4 mm 4 m/s 749 mmHg 86%
    02:00 +14°C° 0.4 mm 4 m/s 749 mmHg 89%
    03:00 +14°C° 0.4 mm 4 m/s 749 mmHg 92%
    04:00 +13°C° 1.2 mm 5 m/s 750 mmHg 91%
    05:00 +12°C° 1.2 mm 5 m/s 750 mmHg 89%
    06:00 +10°C° 1.2 mm 6 m/s 751 mmHg 88%
    07:00 +11°C° 0 mm 6 m/s 751 mmHg 80%
    08:00 +11°C° 0 mm 6 m/s 752 mmHg 73%
    09:00 +13°C° 0 mm 6 m/s 752 mmHg 66%
    10:00 +14°C° 0 mm 6 m/s 753 mmHg 61%
    11:00 +14°C° 0 mm 6 m/s 753 mmHg 57%
    12:00 +15°C° 0 mm 6 m/s 754 mmHg 53%
    13:00 +15°C° 0 mm 6 m/s 754 mmHg 53%
    14:00 +15°C° 0 mm 6 m/s 754 mmHg 52%
    15:00 +15°C° 0 mm 6 m/s 755 mmHg 52%
    16:00 +14°C° 0 mm 5 m/s 755 mmHg 55%
    17:00 +14°C° 0 mm 5 m/s 756 mmHg 57%
    18:00 +13°C° 0 mm 4 m/s 756 mmHg 60%
    19:00 +12°C° 0 mm 4 m/s 757 mmHg 62%
    20:00 +10°C° 0 mm 3 m/s 757 mmHg 64%
    21:00 +9°C° 0 mm 3 m/s 758 mmHg 66%
    22:00 +8°C° 0 mm 3 m/s 758 mmHg 66%
    23:00 +8°C° 0 mm 2 m/s 759 mmHg 67%

    25 Mai, Sâmbătă

    Timp Temperatura Precipitaţii Vânt Presiune Umiditate
    00:00 +7°C° 0 mm 2 m/s 759 mmHg 67%
    01:00 +7°C° 0 mm 2 m/s 759 mmHg 68%
    02:00 +7°C° 0 mm 1 m/s 760 mmHg 68%
    03:00 +7°C° 0 mm 1 m/s 760 mmHg 69%
    04:00 +8°C° 0 mm 1 m/s 760 mmHg 66%
    05:00 +9°C° 0 mm 1 m/s 761 mmHg 64%
    06:00 +10°C° 0 mm 1 m/s 761 mmHg 61%
    07:00 +11°C° 0 mm 1 m/s 761 mmHg 55%
    08:00 +13°C° 0 mm 1 m/s 761 mmHg 49%
    09:00 +14°C° 0 mm 2 m/s 761 mmHg 43%
    10:00 +15°C° 0 mm 2 m/s 761 mmHg 42%
    11:00 +15°C° 0 mm 2 m/s 761 mmHg 40%
    12:00 +16°C° 0 mm 2 m/s 761 mmHg 39%
    13:00 +17°C° 0 mm 2 m/s 761 mmHg 39%
    14:00 +17°C° 0 mm 2 m/s 761 mmHg 38%
    15:00 +17°C° 0 mm 2 m/s 760 mmHg 38%
    16:00 +17°C° 0 mm 2 m/s 760 mmHg 42%
    17:00 +17°C° 0 mm 2 m/s 760 mmHg 46%
    18:00 +16°C° 0 mm 2 m/s 760 mmHg 50%
    19:00 +14°C° 0 mm 3 m/s 760 mmHg 53%
    20:00 +12°C° 0 mm 3 m/s 760 mmHg 56%
    21:00 +11°C° 0 mm 3 m/s 760 mmHg 58%
    22:00 +10°C° 0 mm 3 m/s 760 mmHg 60%
    23:00 +10°C° 0 mm 4 m/s 760 mmHg 61%

    26 Mai, Duminică

    Timp Temperatura Precipitaţii Vânt Presiune Umiditate
    00:00 +8°C° 0 mm 4 m/s 760 mmHg 62%
    01:00 +8°C° 0 mm 4 m/s 760 mmHg 63%
    02:00 +8°C° 0 mm 4 m/s 760 mmHg 64%
    03:00 +8°C° 0 mm 4 m/s 760 mmHg 65%
    04:00 +9°C° 0 mm 5 m/s 759 mmHg 64%
    05:00 +9°C° 0 mm 5 m/s 759 mmHg 63%
    06:00 +10°C° 0 mm 5 m/s 759 mmHg 62%
    07:00 +13°C° 0 mm 6 m/s 758 mmHg 59%
    08:00 +14°C° 0 mm 6 m/s 758 mmHg 56%
    09:00 +16°C° 0 mm 7 m/s 758 mmHg 52%
    10:00 +17°C° 0 mm 7 m/s 757 mmHg 51%
    11:00 +18°C° 0 mm 7 m/s 757 mmHg 49%
    12:00 +20°C° 0 mm 7 m/s 756 mmHg 48%
    13:00 +18°C° 0.2 mm 7 m/s 756 mmHg 54%
    14:00 +17°C° 0.2 mm 6 m/s 756 mmHg 60%
    15:00 +17°C° 0.2 mm 6 m/s 755 mmHg 65%
    16:00 +16°C° 0.1 mm 6 m/s 754 mmHg 66%
    17:00 +16°C° 0.1 mm 6 m/s 754 mmHg 66%
    18:00 +16°C° 0.1 mm 6 m/s 753 mmHg 66%
    19:00 +16°C° 0.1 mm 6 m/s 753 mmHg 66%
    20:00 +16°C° 0.1 mm 6 m/s 752 mmHg 66%
    21:00 +16°C° 0.1 mm 6 m/s 752 mmHg 66%
    22:00 +16°C° 0.2 mm 6 m/s 751 mmHg 69%
    23:00 +16°C° 0.2 mm 6 m/s 751 mmHg 73%
    Arată mai mult